Regional Weather Roundup
Issued by NWS

Home | Current Version | Previous Version | Text Only | Print | Product List | Glossary Off
Versions: 1 2 3 4 5 6 7 8 9 10 11 12 13 14 15 16 17 18 19 20 21 22 23 24 25 26 27 28 29 30 31 32 33 34 35 36 37 38 39 40 41 42 43 44 45 46 47 48 49 50

000
ASUS43 KOAX 230610
RWRNE

WEATHER ROUNDUP FOR NEBRASKA
NATIONAL WEATHER SERVICE OMAHA NE
100 AM CDT WED AUG 23 2017

NOTES: SATELLITE DATA IS BEING USED TO AUGMENT CLOUD COVER ABOVE
       12000 FEET.
       "FAIR" INDICATES FEW OR NO CLOUDS BELOW 12,000 FEET WITH NO
       SIGNIFICANT WEATHER AND/OR OBSTRUCTIONS TO VISIBILITY.


NEZ001>004-019>022-054>056-230700-
NEBRASKA PANHANDLE

CITY           SKY/WX    TMP DP  RH WIND       PRES   REMARKS
SCOTTSBLUFF    CLEAR     63  52  67 SE14      30.15F
6HR MIN TEMP:  63; 6HR MAX TEMP:  84;

ALLIANCE       CLEAR     62  50  64 S15       30.16F
6HR MIN TEMP:  61; 6HR MAX TEMP:  77;

CHADRON        CLEAR     71  49  45 S23G32    30.07F
6HR MIN TEMP:  71; 6HR MAX TEMP:  83;

GORDON         FAIR      65  49  55 S6        30.14F
6HR MIN TEMP:  63; 6HR MAX TEMP:  81;

KIMBALL        CLEAR     63  53  70 SE10      30.19F
SIDNEY         CLEAR     65  54  67 S16       30.20F
6HR MIN TEMP:  64; 6HR MAX TEMP:  79;

$$

NEZ057>060-069>072-079>082-230700-
SOUTHWEST NEBRASKA

CITY           SKY/WX    TMP DP  RH WIND       PRES   REMARKS
NORTH PLATTE   CLEAR     57  55  93 E7        30.20F
6HR MIN TEMP:  56; 6HR MAX TEMP:  76;

IMPERIAL       CLEAR     61  51  70 SE12      30.21S
6HR MIN TEMP:  58; 6HR MAX TEMP:  80;

LEXINGTON      CLEAR     59  54  83 SE5       30.21S
MCCOOK         CLEAR     61  54  77 SE7       30.21S
6HR MIN TEMP:  61; 6HR MAX TEMP:  78;

OGALLALA       CLEAR     63  53  70 E3        30.20F
$$

NEZ005>010-023>029-035>040-094-230700-
NORTH CENTRAL NEBRASKA

CITY           SKY/WX    TMP DP  RH WIND       PRES   REMARKS
VALENTINE      CLEAR     62  50  64 CALM      30.14F
6HR MIN TEMP:  62; 6HR MAX TEMP:  81;

AINSWORTH      CLEAR     59  53  79 S7        30.16F
BROKEN BOW     CLEAR     57  53  86 CALM      30.19F
6HR MIN TEMP:  57; 6HR MAX TEMP:  77;

O`NEILL        CLEAR     59  54  83 S5        30.17F
ORD            CLEAR     58  54  86 CALM      30.17F
6HR MIN TEMP:  56; 6HR MAX TEMP:  74;

THEDFORD       CLEAR     64  52  66 S12       30.19S
$$

NEZ041-046>049-061>064-073>077-083>087-230700-
SOUTH CENTRAL NEBRASKA

CITY           SKY/WX    TMP DP  RH WIND       PRES   REMARKS
GRAND ISLAND   CLEAR     59  55  87 S6        30.20S
6HR MIN TEMP:  59; 6HR MAX TEMP:  74;

AURORA         CLEAR     57  55  91 SE3       30.20S
HASTINGS       CLEAR     60  54  80 CALM      30.22R
6HR MIN TEMP:  60; 6HR MAX TEMP:  76;

HEBRON         CLEAR     56  53  90 CALM      30.20S
HOLDREGE       PTCLDY    59  53  78 S6        30.21F
KEARNEY        CLEAR     59  55  87 S6        30.21S
YORK           CLEAR     55  55 100 CALM      30.20S
$$

NEZ011>018-030>034-042>045-230700-
NORTHEAST NEBRASKA

CITY           SKY/WX    TMP DP  RH WIND       PRES   REMARKS
NORFOLK        CLEAR     56  54  93 CALM      30.17F
6HR MIN TEMP:  55; 6HR MAX TEMP:  73;

ALBION         CLEAR     56  55  95 CALM      30.19S
BLAIR          CLEAR     63  53  70 CALM      30.17F
COLUMBUS       CLEAR     53  52  96 CALM      30.19S
FREMONT        CLEAR     59  57  94 CALM      30.18S
TEKAMAH        CLEAR     56  53  90 E3        30.16S
6HR MIN TEMP:  55; 6HR MAX TEMP:  73;

WAYNE          CLEAR     53  50  90 CALM      30.17S
$$

NEZ050>053-065>068-078-088>093-230700-
SOUTHEAST NEBRASKA

CITY           SKY/WX    TMP DP  RH WIND       PRES   REMARKS
LINCOLN        CLEAR     58  54  86 CALM      30.19S
6HR MIN TEMP:  58; 6HR MAX TEMP:  74;

OMAHA EPPLEY   CLEAR     61  54  77 CALM      30.18R
6HR MIN TEMP:  58; 6HR MAX TEMP:  75;

BEATRICE       CLEAR     58  55  90 CALM      30.19S
FALLS CITY     CLEAR     56  54  93 NW3       30.17R
6HR MIN TEMP:  56; 6HR MAX TEMP:  73;

NEBRASKA CITY  CLEAR     61  52  73 N5        30.18S
PLATTSMOUTH    CLEAR     60  51  69 CALM      30.18S
$$

NEZ044-045-051>053-067-230700-
OMAHA AREA

CITY           SKY/WX    TMP DP  RH WIND       PRES   REMARKS
OMAHA EPPLEY   CLEAR     61  54  77 CALM      30.18R
6HR MIN TEMP:  58; 6HR MAX TEMP:  75;

BLAIR          CLEAR     63  53  70 CALM      30.17F
FREMONT        CLEAR     59  57  94 CALM      30.18S
MILLARD        CLEAR     59  56  92 CALM      30.18S
OFFUTT AFB     CLEAR     54  53  96 CALM      30.17R
PLATTSMOUTH    CLEAR     60  51  69 CALM      30.18S
WAHOO          FAIR      56  55  95 CALM      30.18R
$$




USA.gov is the U.S. government's official web portal to all federal, state and local government web resources and services.